Terminal Aerodrome Forecast
Issued by NWS Albany, NY

Home | Current Version | Previous Version | Text Only | Print | Product List | Glossary On
Versions: 1 2 3 4 5 6 7 8 9 10 11 12 13 14 15 16 17 18 19 20 21 22 23 24 25 26 27 28 29 30 31 32 33 34 35 36 37 38 39 40 41 42 43 44 45 46 47 48 49 50
000
FTUS41 KALY 161533 AAB
TAFALB
TAF AMD
KALB 161533Z 1616/1712 17007KT 5SM -SHRA BR SCT007 OVC025
      TEMPO 1616/1618 3SM -SHRA BR BKN007 OVC015
     FM161800 02005KT 4SM -SHRA BR OVC015
     FM162100 02005KT 6SM BR VCSH OVC015
     FM170000 34004KT P6SM OVC008=

USA.gov is the U.S. government's official web portal to all federal, state and local government web resources and services.